HUSKYSAT-1 (HO-107) (45119 NORAD) Tracking and Keplerian Element Data

This shows tracking and keplerian element data for the satellite.

Feedback or suggestion? Click here.




ElementValue
Catalog45119
NameHUSKYSAT-1 (HO-107)
Epoch Orbit15759
Epoch Day324.83193868
Epoch Year2022
RAAN6.6394
Inclination51.6365
Eccentricity0.0011099
Argument of Perigee23.0282
Mean Anonmoly337.1204
Mean Motion15.54203973
Decay Rate0.00035153
L11 45119U 19071J 22324.83193868 .00035153 00000+0 53321-3 0 9990
L22 45119 51.6365 6.6394 0011099 23.0282 337.1204 15.54203973157599



Live tracking and technical data element details for HUSKYSAT-1 (HO-107) (NORAD 45119). HUSKYSAT-1 (HO-107) can be tracked NOW for your location showing map with azimuth and elevation plus other details from your city location.







IsCatalogInMostPopularTable: catalog: 45119, numindb: 219
Update: records affected: 1



GetName: 45119 HUSKYSAT-1 (HO-107)

Hit Count: updated at: Mon, 28 Nov 2022 03:58:06 GMT